www.pogodaiklimat.ru

Погода и климат >> Архив погоды >> Австралия >> Новый Южный Уэльс >> Брокен-Хилл аэропорт


ПОГОДА в Брокен-Хилл аэропорту

  • Прогноз погоды в Брокен-Хилл аэропорту
  • Монитор погоды в Брокен-Хилл аэропорту

АРХИВ ПОГОДЫ в Брокен-Хилл аэропорту

Время (UTC), дата Ветер
(напр.,м/с)
 
Видим.   Явления Облачность Т
(С)
Тd
(С)
f
(%)
Тe
(С)
Тes
(С)
Комфортность P
(гПа)
Po
(гПа)
Тmin
(С)
Tmax
(С)
R
(мм)
R24
(мм)
S
(см)
19 16.09 Ю 6 н/о н/о +4.8 +2.3 84 -0 -0 1024.0 990.6
20 16.09 Ю 6 н/о н/о +4.2 +1.6 83 -1 -1 1024.5 991.1
21 16.09 Ю 5 н/о н/о +4.0 +1.4 83 -1 -1 1025.3 991.9
22 16.09 Ю 8 н/о н/о +5.8 +1.0 71 +1 +1 1026.1 992.6
23 16.09 ЮВ 9 н/о н/о +7.5 -0.7 56 +3 +3 1026.2 992.7
00 17.09 ЮВ 10 н/о н/о +9.2 -3.7 40 +5 +5 1026.3 992.8
01 17.09 Ю 10 н/о н/о +10.4 -5.6 32 +7 +7 1025.5 992.1
02 17.09 Ю 9 н/о н/о +12.1 -5.4 29 +9 +9 1025.2 991.8 +3.8
03 17.09 Ю 8 н/о н/о +12.9 -7.7 23 +11 +11 1024.6 991.2
04 17.09 Ю 9 н/о н/о +14.0 -5.7 25 +12 +12 1024.1 990.7
05 17.09 Ю 8 н/о н/о +14.6 -5.7 24 +13 +13 1023.9 990.5
06 17.09 ЮВ 7 н/о н/о +15.1 -6.4 22 +14 +14 1023.8 990.4
07 17.09 Ю 6 н/о н/о +14.5 -5.3 25 +13 +13 1024.2 990.8
08 17.09 Ю 7 н/о н/о +13.5 -5.6 26 +12 +12 1024.9 991.5
09 17.09 Ю 5 н/о н/о +12.1 -5.8 28 +10 +10 1025.8 992.3
10 17.09 ЮВ 4 н/о н/о +10.8 -6.1 30 +9 +9 1026.0 992.5
11 17.09 Ю 5 н/о н/о +10.1 -5.8 32 +8 +8 1026.4 992.9
12 17.09 ЮВ 3 н/о н/о +8.6 -6.0 35 +7 +7 1026.8 993.3
13 17.09 ЮВ 4 н/о н/о +8.0 -5.1 39 +6 +6 1026.5 993.0
14 17.09 ЮВ 4 н/о н/о +7.0 -5.3 41 +4 +4 1026.2 992.7 +15.8
15 17.09 ЮВ 3 н/о н/о +6.2 -5.1 44 +4 +4 1026.1 992.6
16 17.09 ЮВ 3 н/о н/о +5.5 -5.2 46 +3 +3 1025.8 992.3
17 17.09 ЮВ 3 н/о н/о +6.1 -4.1 48 +3 +3 1025.4 992.0
18 17.09 Ю 1 н/о н/о +5.4 -4.4 49 +5 +5 1025.5 992.1
19 17.09 штиль 0 н/о н/о +4.9 -3.9 53 +5 +5 1025.5 992.1
20 17.09 Ю 2 н/о н/о +4.7 -3.3 56 +3 +3 1025.6 992.2
21 17.09 ЮЗ 2 н/о н/о +5.2 -3.3 54 +4 +4 1026.0 992.5
22 17.09 ЮВ 5 н/о н/о +10.4 -1.3 44 +8 +8 1025.9 992.4
23 17.09 В 5 н/о н/о +13.0 +2.3 48 +11 +11 1026.3 992.8
00 18.09 В 4 н/о н/о +14.5 +3.0 46 +13 +13 1026.0 992.5
01 18.09 В 4 н/о н/о +15.9 +2.3 40 +15 +15 1025.5 992.1
02 18.09 В 3 н/о 1/0
[]
+16.7 +1.6 36 +17 +17 1024.7 991.3 +4.3
03 18.09 С 4 н/о н/о +18.0 +1.5 33 +18 +18 1023.8 990.4
04 18.09 В 3 н/о н/о +19.3 +0.4 28 +20 +20 1023.2 989.8
05 18.09 СВ 3 н/о н/о +20.5 +0.4 26 +21 +21 комфорт 1022.5 989.2
06 18.09 С 2 н/о н/о +21.3 -0.1 24 +21 +21 комфорт 1022.0 988.7
07 18.09 В 3 н/о н/о +20.5 -0.7 24 +21 +21 комфорт 1021.9 988.6
08 18.09 В 4 н/о н/о +19.9 -0.7 25 +20 +20 1021.8 988.5
09 18.09 В 4 н/о н/о +17.1 -2.5 26 +17 +17 1022.0 988.7
10 18.09 В 4 н/о н/о +15.6 -1.9 30 +15 +15 1022.4 989.1
11 18.09 В 4 н/о н/о +14.5 -1.6 33 +14 +14 1022.5 989.2
12 18.09 В 5 н/о н/о +13.8 -1.4 35 +12 +12 1022.4 989.1
13 18.09 СВ 4 н/о н/о +12.7 -0.2 41 +11 +11 1022.2 988.9
14 18.09 СВ 5 н/о н/о +12.1 -0.1 43 +10 +10 1021.4 988.1 +21.6
15 18.09 С 2 н/о н/о +11.3 -1.1 42 +11 +11 1021.5 988.2
16 18.09 С 3 н/о н/о +10.1 -0.1 49 +9 +9 1020.4 987.1
17 18.09 С 3 н/о н/о +11.6 +1.0 48 +10 +10 1020.3 987.0
18 18.09 С 4 н/о н/о +12.2 +1.2 47 +11 +11 1020.1 986.8
19 18.09 СВ 6 н/о н/о +10.3 +0.1 49 +8 +8 1019.9 986.6
20 18.09 С 4 н/о н/о +11.4 +1.1 49 +9 +9 1020.1 986.8
21 18.09 СВ 6 н/о н/о +12.1 +0.8 46 +10 +10 1019.9 986.6
22 18.09 С 5 н/о н/о +14.8 +1.3 40 +14 +14 1020.0 986.7
23 18.09 С 7 н/о н/о +18.1 +2.4 35 +17 +17 1020.2 986.9
00 19.09 С 9 н/о н/о +21.2 +3.0 30 +21 +21 комфорт 1020.0 986.7
01 19.09 С 9 н/о н/о +22.4 +1.4 25 +22 +22 комфорт 1019.3 986.1
02 19.09 С 9 н/о н/о +24.8 +0.3 20 +23 +23 комфорт 1018.0 984.8 +8.2
03 19.09 С 9 н/о н/о +25.9 -1.0 17 +24 +24 комфорт 1016.7 983.5
04 19.09 С 8 н/о н/о +27.1 -2.7 14 +25 +25 комфорт 1016.4 983.3
05 19.09 С 8 н/о 1/0
[]
+27.9 -2.0 14 +25 +25 комфорт 1015.4 982.3
06 19.09 С 7 н/о н/о +27.1 -2.7 14 +25 +25 комфорт 1015.1 982.0
07 19.09 С 8 н/о н/о +27.2 -1.7 15 +25 +25 комфорт 1014.8 981.7
08 19.09 СВ 7 н/о 1/0
[]
+26.3 -1.5 16 +24 +24 комфорт 1015.1 982.0
09 19.09 СВ 7 н/о н/о +24.8 -1.9 17 +23 +23 комфорт 1015.3 982.2
10 19.09 СВ 5 н/о н/о +23.4 -2.2 18 +22 +22 комфорт 1015.6 982.5
11 19.09 СВ 6 н/о н/о +21.1 -2.0 21 +20 +20 1015.8 982.7
12 19.09 СВ 6 н/о н/о +19.9 -1.8 23 +20 +20 1015.5 982.4
13 19.09 СВ 7 н/о н/о +20.0 -2.3 22 +19 +19 1015.3 982.2
14 19.09 СВ 7 н/о н/о +18.9 -2.1 24 +18 +18 1015.2 982.1 +28.2
15 19.09 СВ 7 н/о н/о +18.0 -1.8 26 +17 +17 1015.1 982.0
16 19.09 СВ 5 н/о н/о +17.2 -1.9 27 +17 +17 1014.9 981.8
17 19.09 СВ 6 н/о н/о +17.2 -1.4 28 +16 +16 1014.4 981.3
18 19.09 СВ 6 н/о н/о +16.8 -1.3 29 +16 +16 1013.8 980.7
19 19.09 СВ 7 н/о н/о +16.7 -0.9 30 +16 +16 1013.3 980.3
20 19.09 СВ 7 н/о н/о +16.6 -0.6 31 +15 +15 1013.9 980.8
21 19.09 СВ 8 н/о н/о +17.2 -0.1 31 +16 +16 1014.3 981.2
22 19.09 СВ 9 н/о н/о +20.2 +1.1 28 +20 +20 1014.5 981.4
23 19.09 СВ 12 н/о н/о +23.0 +1.9 25 +22 +22 комфорт 1014.1 981.0
00 20.09 СВ 14 н/о н/о +25.6 +2.3 22 +24 +24 комфорт 1013.4 980.4
01 20.09 С 10 н/о н/о +27.4 +0.2 17 +25 +25 комфорт 1012.5 979.5
02 20.09 С 10 н/о н/о +28.6 -2.5 13 +26 +26 жарко 1011.5 978.5 +16.4
03 20.09 С 9 н/о н/о +30.0 -2.5 12 +27 +27 жарко 1010.7 977.7
04 20.09 С 10 н/о н/о +30.6 -3.2 11 +27 +27 жарко 1009.6 976.7
05 20.09 С 8 н/о н/о +31.0 -4.1 10 +27 +27 жарко 1008.9 976.0
06 20.09 С 9 н/о н/о +30.1 -4.8 10 +27 +27 жарко 1008.5 975.6
07 20.09 С 8 н/о н/о +29.9 -6.4 9 +26 +26 жарко 1008.3 975.4
08 20.09 С 6 н/о 4/0
[]
+29.2 -6.9 9 +26 +26 жарко 1008.2 975.3
09 20.09 С 4 н/о н/о +28.1 -7.7 9 +25 +25 комфорт 1008.3 975.4
10 20.09 С 4 н/о н/о +26.7 -8.8 9 +23 +23 комфорт 1008.4 975.5
11 20.09 С 4 9000 м 1/1 600 м
[]
+25.5 -8.3 10 +23 +23 комфорт 1008.7 975.8
12 20.09 ЮЗ 9 н/о н/о +20.9 +4.9 35 +21 +21 комфорт 1010.2 977.3
13 20.09 ЮЗ 11 н/о н/о +17.8 +7.2 50 +16 +16 1010.2 977.3
14 20.09 ЮЗ 10 н/о н/о +15.1 +6.9 58 +13 +13 1011.4 978.4 +32.0
15 20.09 ЮЗ 10 н/о н/о +14.8 +6.6 58 +12 +12 1011.5 978.5
16 20.09 ЮЗ 7 н/о н/о +14.5 +6.8 60 +13 +13 1011.9 978.9
17 20.09 ЮЗ 6 н/о 10/10 1000 м
[]
+14.3 +6.4 59 +12 +12 1011.8 978.8
18 20.09 ЮЗ 4 н/о н/о +13.6 +7.6 67 +12 +12 1012.3 979.3
19 20.09 З 4 н/о н/о +12.0 +9.6 85 +10 +10 1012.7 979.7
20 20.09 З 7 н/о в посл. час дождь {туман} 10/10 100 м
[]
+10.8 +9.4 91 +7 +7 1014.3 981.2
21 20.09 ЮЗ 8 н/о н/о +9.7 +7.1 84 +6 +6 1015.7 982.6
22 20.09 З 8 н/о н/о +10.3 +7.2 81 +6 +6 1016.9 983.7
23 20.09 ЮЗ 7 н/о {туман} н/о +12.0 +6.3 68 +9 +9 1017.9 984.7 1
00 21.09 ЮЗ 8 н/о н/о +13.0 +3.9 54 +10 +10 1018.5 985.3
01 21.09 З 6 н/о н/о +14.2 +4.8 53 +12 +12 1018.7 985.5
02 21.09 З 7 н/о 1/1 1000 м
[]
+15.9 +2.7 41 +14 +14 1018.7 985.5 +9.5
03 21.09 З 8 н/о н/о +16.1 +1.8 38 +15 +15 1018.7 985.5
04 21.09 З 7 н/о н/о +17.2 +2.8 38 +16 +16 1018.6 985.4
05 21.09 З 7 н/о н/о +17.6 -0.2 30 +17 +17 1018.3 985.1
06 21.09 З 8 н/о н/о +17.4 -1.8 27 +16 +16 1018.4 985.2
07 21.09 З 8 н/о н/о +17.2 -1.4 28 +16 +16 1019.0 985.8
08 21.09 З 8 н/о 3/0 2000 м
[]
+16.5 -1.1 30 +15 +15 1019.7 986.4
09 21.09 З 7 н/о н/о +15.7 -1.4 31 +14 +14 1020.4 987.1
10 21.09 З 6 н/о н/о +14.8 -0.5 35 +13 +13 1020.8 987.5
11 21.09 ЮЗ 5 н/о н/о +13.8 +2.4 46 +12 +12 1021.6 988.3
12 21.09 ЮЗ 5 н/о н/о +12.7 +3.6 54 +11 +11 1022.1 988.8
13 21.09 ЮЗ 5 н/о н/о +11.3 +4.1 61 +9 +9 1022.8 989.4
14 21.09 ЮЗ 4 н/о н/о +10.3 +3.3 62 +8 +8 1023.3 989.9 +21.0
15 21.09 Ю 4 н/о н/о +9.1 +3.1 66 +7 +7 1023.6 990.2
16 21.09 ЮЗ 3 н/о н/о +7.7 +2.6 70 +5 +5 1023.4 990.0
17 21.09 Ю 2 н/о н/о +7.4 +2.9 73 +6 +6 1023.6 990.2
18 21.09 ЮЗ 3 н/о н/о +6.1 +2.0 75 +3 +3 1023.4 990.0
19 21.09 ЮЗ 3 н/о н/о +5.4 +1.5 76 +3 +3 1024.0 990.6
20 21.09 Ю 2 н/о 5/0
[]
+5.4 +2.4 81 +3 +3 1024.5 991.1
21 21.09 Ю 2 н/о н/о +5.8 +2.8 81 +4 +4 1025.1 991.7
22 21.09 Ю 2 н/о н/о +8.0 +3.8 75 +7 +7 1026.3 992.8
23 21.09 Ю 3 н/о н/о +11.1 +3.9 61 +9 +9 1027.1 993.6
00 22.09 ЮЗ 2 н/о н/о +12.4 +2.6 51 +12 +12 1027.2 993.7
01 22.09 СЗ 2 н/о н/о +14.3 +2.2 44 +14 +14 1026.9 993.4
02 22.09 ЮЗ 4 н/о н/о +14.7 +0.2 37 +14 +14 1026.5 993.0 +5.1
03 22.09 З 6 н/о н/о +15.9 -1.2 31 +15 +15 1025.5 992.1
04 22.09 ЮЗ 6 н/о н/о +17.2 -2.4 26 +16 +16 1024.8 991.4
05 22.09 З 7 н/о 3/0 2000 м
[]
+18.2 -2.1 25 +18 +18 1024.4 991.0
06 22.09 СЗ 5 н/о н/о +17.7 -2.0 26 +17 +17 1024.1 990.7
07 22.09 З 7 н/о н/о +17.6 -2.1 26 +17 +17 1024.2 990.8
08 22.09 З 7 н/о н/о +16.4 -2.1 28 +15 +15 1024.6 991.2
09 22.09 СЗ 4 н/о н/о +15.2 -1.8 31 +15 +15 1025.1 991.7
10 22.09 З 3 н/о н/о +14.1 -1.9 33 +14 +14 1025.6 992.2
11 22.09 З 5 н/о н/о +14.2 -1.8 33 +13 +13 1026.4 992.9
12 22.09 З 3 н/о н/о +12.2 -1.7 38 +11 +11 1026.6 993.1
13 22.09 З 3 н/о н/о +11.6 -1.2 41 +11 +11 1026.9 993.4
14 22.09 З 5 н/о н/о +10.7 -0.7 45 +8 +8 1027.4 993.9 +18.6
15 22.09 З 3 н/о н/о +9.4 +0.1 52 +8 +8 1027.4 993.9
16 22.09 ЮЗ 4 н/о н/о +8.5 +0.2 56 +6 +6 1027.3 993.8
17 22.09 З 3 н/о н/о +8.2 +1.4 62 +6 +6 1027.1 993.6
18 22.09 З 5 н/о н/о +8.2 +2.2 66 +5 +5 1027.1 993.6
19 22.09 З 3 н/о н/о +6.6 +0.9 67 +4 +4 1027.7 994.2
20 22.09 З 4 н/о н/о +7.3 +2.4 71 +4 +4 1027.9 994.4
21 22.09 ЮЗ 3 н/о н/о +7.1 +2.6 73 +5 +5 1028.7 995.2
22 22.09 ЮЗ 7 н/о н/о +10.2 +4.6 68 +7 +7 1029.4 995.8
23 22.09 ЮЗ 8 н/о н/о +12.0 +3.3 55 +9 +9 1030.1 996.5
00 23.09 ЮЗ 7 н/о н/о +13.7 +1.4 43 +12 +12 1030.3 996.7
01 23.09 ЮЗ 7 н/о н/о +13.8 -0.3 38 +12 +12 1029.9 996.3
02 23.09 Ю 8 н/о н/о +15.9 -1.2 31 +14 +14 1029.3 995.7 +6.5
03 23.09 ЮЗ 6 н/о н/о +17.2 -1.9 27 +16 +16 1028.7 995.2
04 23.09 Ю 6 н/о н/о +16.9 -2.2 27 +16 +16 1027.9 994.4
05 23.09 З 5 н/о н/о +17.6 -3.2 24 +17 +17 1027.3 993.8
06 23.09 ЮЗ 6 н/о н/о +17.7 -3.7 23 +17 +17 1027.5 994.0
07 23.09 Ю 4 н/о н/о +17.9 -3.5 23 +18 +18 1027.4 993.9
08 23.09 Ю 4 н/о н/о +17.4 -3.4 24 +17 +17 1027.6 994.1
09 23.09 Ю 3 н/о н/о +15.7 -4.2 25 +15 +15 1028.4 994.9
10 23.09 Ю 1 н/о н/о +13.6 -4.5 28 +15 +15 1029.0 995.4
11 23.09 штиль 0 н/о н/о +13.2 -4.0 30 +13 +13 1029.6 996.0
12 23.09 ЮЗ 2 н/о н/о +11.1 -4.5 33 +11 +11 1029.8 996.2
13 23.09 Ю 2 н/о н/о +9.9 -4.1 37 +9 +9 1029.6 996.0
14 23.09 ЮЗ 3 н/о н/о +8.9 -5.0 37 +7 +7 1029.3 995.7 +19.1
15 23.09 ЮЗ 1 н/о н/о +8.8 -4.4 39 +9 +9 1029.3 995.7
16 23.09 штиль 0 н/о н/о +8.8 -3.7 41 +9 +9 1029.1 995.5
17 23.09 ЮЗ 2 н/о н/о +8.0 -2.9 46 +7 +7 1029.0 995.4
18 23.09 ЮЗ 3 н/о н/о +5.9 -4.3 48 +4 +4 1028.9 995.3
19 23.09 ЮЗ 3 н/о н/о +5.3 -3.5 53 +3 +3 1029.4 995.8

 

Местоположение метеостанции Брокен-Хилл аэропорт (Новый Южный Уэльс, Австралия): широта -32.00 долгота 141.46 высота над уровнем моря 282 м.

В архиве по умолчанию представлена погода в Брокен-Хилл аэропорту за последнюю неделю. Архивные данные за месяц целиком и за предыдущие месяцы, начиная с января 2011 года, Вы можете получить, выбрав интересующий диапазон дат из раскрывающегося списка и нажав кнопку "Ввод!".


*Определитесь, кто Вы:
робот инопланетянин человек

Внимание! Время в таблицах - всемирное. Для получения местного времени необходимо прибавить поправку, которая равна 10 ч.

Смотрите также архив погоды в соседних городах и на ближайших метеорологических станциях:

Погода в Фоулерс Гэп (Новый Южный Уэльс, Австралия) (105 км)
Погода в Юнте (Южная Австралия, Австралия) (189 км)
Погода в Уилкании (Новый Южный Уэльс, Австралия) (189 км)
Погода в Уафт Клифс (Новый Южный Уэльс, Австралия) (199 км)
Погода в Милдьюре (Новый Южный Уэльс, Австралия) (255 км)
Погода в Ренмарке (Южная Австралия, Австралия) (255 км)
Погода в Локстоне (Южная Австралия, Австралия) (282 км)
Погода в Айванхо (Новый Южный Уэльс, Австралия) (286 км)
Погода в Тибообере (Новый Южный Уэльс, Австралия) (289 км)
Погода в Ли-Крике (Южная Австралия, Австралия) (328 км)

Пояснения к столбцам:

Ветер - указаны скорость ветра в м/с - средняя за 10 мин, порывы в срок и между сроками (в фигурных скобках) и направление, откуда дует ветер: С - северный, СВ - северо-восточный, В - восточный, ЮВ - юго-восточный, Ю - южный, ЮЗ - юго-западный, З - западный, СЗ - северо-западный.
Видимость - горизонтальная дальность видимости в метрах или километрах. При видимости от 1 до 10 км при отсутствии осадков обычно наблюдается дымка, при ухудшении видимости до 1 км и менее - туман. В сухую погоду видимость может ухудшаться дымом, пылью или мглою.
Явления - указаны атмосферные явления, наблюдавшиеся в срок или в последний час перед сроком; фигурными скобками обозначены явления, наблюдавшиеся между сроками (за 1-3 часа до срока); квадратными скобками обозначены град или гололедные отложения с указанием их диаметра в мм.
Облачность - указаны через наклонную черту общая и нижняя облачность в баллах и высота нижней границы облаков в метрах; квадратными скобками обозначены формы облаков: Ci - перистые, Cs - перисто-слоистые, Cc - перисто-кучевые, Ac - высококучевые, As - высокослоистые, Sc - слоисто-кучевые, Ns - слоисто-дождевые, Cu - кучевые, Cb - кучево-дождевые. Подробнее классификацию облаков см. в Атласе облаков (PDF).
T - Температура воздуха - температура, измеренная на высоте 2 м над землей.
Td - Температура точки росы - температура, при понижении до которой содержащийся в воздухе водяной пар достигнет насыщения.
f - Относительная влажность воздуха - влажноcть воздуха, измеренная на высоте 2 м над землей.
Te - Эффективная температура - температура, которую ощущает одетый по сезону человек в тени. Характеристика душности погоды. При расчете учитывается влияние влажности воздуха и скорости ветра на теплоощущения человека.
Tes - Эффективная температура на солнце - температура, которую ощущает человек, с поправкой на солнечный нагрев. Характеристика знойности погоды. Зависит от высоты солнца над горизонтом, облачности и скорости ветра. Ночью, в пасмурную погоду, а также при ветре 12 м/с и более поправка равна нулю.
P - Атмосферное давление - приведенное к уровню моря атмосферное давление.
Po - Атмосферное давление - измеренное на уровне метеостанции атмосферное давление.
Tmin - Минимальная температура - минимум температуры воздуха на высоте 2 м над землей.
Tmax - Максимальная температура - максимум температуры воздуха на высоте 2 м над землей.
R - Количество осадков - Количество выпавших осадков за период времени, мм. При наведении курсора мыши на число - период времени, за который выпало указанное количество осадков.
R24 - Количество осадков - Количество выпавших осадков за 24 часа, мм.
S - Снежный покров - Высота снежного покрова, см. При наведении курсора мыши на число - состояние снежного покрова и степень покрытия местности в баллах.